Weather History for KFDR - July, 2013

Change the Weather History Date:

Tuesday, July 16, 2013

  Actual Average (KLTS) Record (KLTS)
Temperature  
Mean Temperature 72 °F -  
Max Temperature 77 °F 96 °F 109 °F (2001)
Min Temperature 66 °F 71 °F 61 °F (2014)
Cooling Degree Days 6    
Growing Degree Days 22 (Base 50)    
Moisture  
Dew Point 68 °F    
Average Humidity 92    
Maximum Humidity 100    
Minimum Humidity 84    
Precipitation  
Precipitation 2.31 in - - ()
Sea Level Pressure  
Sea Level Pressure 30.11 in    
Wind  
Wind Speed 12 mph (ESE)    
Max Wind Speed 18 mph    
Max Gust Speed 25 mph    
Visibility 6 miles    
Events Fog , Rain , Thunderstorm    
Averages and records for this station are not official NWS values.
T = Trace of Precipitation, MM = Missing Value Source: NWS Daily Summary

Daily Weather History Graph

Daily Weather History Graph

Search for Another Location

Airport or City:

Trip Planner

Search our weather history database for the weather conditions in past years. The results will help you decide how hot, cold, wet, or windy it might be!

Date:

Astronomy

Jul. 16, 2013 Rise Set
Actual Time 6:35 AM CDT 8:48 PM CDT
Civil Twilight 6:07 AM CDT 9:16 PM CDT
Nautical Twilight 5:32 AM CDT 9:51 PM CDT
Astronomical Twilight 4:54 AM CDT 10:29 PM CDT
Moon 2:37 PM CDT (7/16) 12:58 AM CDT (7/16)
Length of Visible Light 15h 09m
Length of Day
14h 12m
First Quarter, 56% of the Moon is Illuminated
Jul 16
First Quarter
Jul 22
Full
Jul 29
Last Quarter
Aug 6
New
Aug 14
First Quarter

Hourly Weather History & Observations

Time (CDT) Temp. Dew Point Humidity Pressure Visibility Wind Dir Wind Speed Gust Speed Precip Events Conditions
12:53 AM 70.0 °F 66.9 °F 90% 30.06 in 5.0 mi East 12.7 mph - 0.00 in Rain Light Rain
1:05 AM 69.8 °F 68.0 °F 94% 30.09 in 2.0 mi ESE 12.7 mph - 0.03 in Rain Rain
1:28 AM 69.8 °F 66.2 °F 88% 30.08 in 4.0 mi ESE 15.0 mph - 0.15 in Rain Light Rain
1:39 AM 68.0 °F 66.2 °F 94% 30.08 in 8.0 mi East 15.0 mph - 0.16 in Rain Light Rain
1:51 AM 68.0 °F 66.2 °F 94% 30.08 in 7.0 mi East 9.2 mph - 0.18 in Rain Light Rain
1:53 AM 68.0 °F 66.0 °F 93% 30.04 in 7.0 mi East 10.4 mph - 0.18 in Rain Rain
2:31 AM 66.2 °F 66.2 °F 100% 30.07 in 1.8 mi ENE 16.1 mph - 0.18 in Rain Heavy Rain
2:39 AM 68.0 °F 66.2 °F 94% 30.08 in 2.0 mi ENE 10.4 mph - 0.23 in Rain Heavy Rain
2:48 AM 68.0 °F 66.2 °F 94% 30.06 in 5.0 mi NE 8.1 mph - 0.24 in Rain Light Rain
2:53 AM 68.0 °F 66.0 °F 93% 30.03 in 10.0 mi East 8.1 mph - 0.24 in Rain Light Rain
3:00 AM 68.0 °F 66.2 °F 94% 30.06 in 2.5 mi East 6.9 mph - 0.12 in Rain Heavy Rain
3:18 AM 69.8 °F 66.2 °F 88% 30.06 in 2.0 mi ESE 12.7 mph - 0.31 in Rain Heavy Rain
3:22 AM 69.8 °F 68.0 °F 94% 30.06 in 2.5 mi ESE 17.3 mph 23.0 mph 0.34 in Rain Heavy Rain
3:32 AM 69.8 °F 68.0 °F 94% 30.07 in 3.0 mi ESE 18.4 mph 25.3 mph 0.39 in Rain Heavy Rain
3:42 AM 69.8 °F 68.0 °F 94% 30.07 in 7.0 mi ESE 18.4 mph - 0.39 in Rain Light Rain
3:49 AM 69.8 °F 68.0 °F 94% 30.07 in 7.0 mi ESE 17.3 mph - 0.40 in Rain Light Rain
3:53 AM 70.0 °F 68.0 °F 93% 30.03 in 7.0 mi ESE 16.1 mph - 0.40 in Rain Light Rain
4:13 AM 69.8 °F 68.0 °F 94% 30.07 in 6.0 mi ESE 16.1 mph - 0.02 in Rain Light Rain
4:22 AM 69.8 °F 68.0 °F 94% 30.07 in 7.0 mi ESE 11.5 mph - 0.02 in Rain Light Rain
4:32 AM 69.8 °F 66.2 °F 88% 30.07 in 9.0 mi ESE 11.5 mph - 0.02 in Rain Light Rain
4:40 AM 69.8 °F 68.0 °F 94% 30.07 in 9.0 mi ESE 12.7 mph - 0.02 in Rain Light Rain
4:53 AM 70.0 °F 68.0 °F 93% 30.04 in 8.0 mi SE 13.8 mph - 0.02 in   Overcast
5:02 AM 69.8 °F 68.0 °F 94% 30.08 in 7.0 mi ESE 11.5 mph - N/A   Overcast
5:32 AM 69.8 °F 68.0 °F 94% 30.08 in 7.0 mi ESE 11.5 mph - 0.00 in Rain Light Rain
5:43 AM 69.8 °F 68.0 °F 94% 30.09 in 7.0 mi ESE 11.5 mph - 0.00 in   Overcast
5:53 AM 70.0 °F 68.0 °F 93% 30.05 in 7.0 mi ESE 10.4 mph - 0.00 in   Overcast
6:53 AM 70.0 °F 68.0 °F 93% 30.07 in 5.0 mi ESE 12.7 mph - 0.03 in Rain Light Rain
7:42 AM 69.8 °F 68.0 °F 94% 30.12 in 3.0 mi East 11.5 mph - 0.19 in Rain Heavy Rain
7:53 AM 70.0 °F 68.0 °F 93% 30.09 in 3.0 mi ESE 10.4 mph - 0.26 in Rain Heavy Rain
8:35 AM 69.8 °F 68.0 °F 94% 30.14 in 6.0 mi SE 12.7 mph - 0.08 in Rain Light Rain
8:48 AM 69.8 °F 68.0 °F 94% 30.14 in 4.0 mi SE 16.1 mph - 0.09 in Rain Light Rain
8:53 AM 70.0 °F 68.0 °F 93% 30.11 in 4.0 mi SE 15.0 mph - 0.10 in Rain Rain
9:02 AM 69.8 °F 68.0 °F 94% 30.15 in 3.0 mi ESE 15.0 mph - 0.02 in Rain Rain
9:53 AM 71.1 °F 69.1 °F 93% 30.12 in 6.0 mi ESE 15.0 mph - 0.05 in Rain Light Rain
10:53 AM 72.0 °F 70.0 °F 93% 30.11 in 8.0 mi ESE 17.3 mph - 0.00 in   Overcast
11:53 AM 73.9 °F 70.0 °F 87% 30.13 in 9.0 mi SE 15.0 mph - N/A   Overcast
12:03 PM 73.4 °F 69.8 °F 88% 30.17 in 9.0 mi SE 17.3 mph 24.2 mph N/A   Overcast
12:53 PM 73.9 °F 71.1 °F 91% 30.12 in 4.0 mi SE 12.7 mph - 0.02 in Rain Light Rain
1:20 PM 69.8 °F 66.2 °F 88% 30.15 in 10.0 mi WSW 16.1 mph - 0.00 in   Overcast
1:36 PM 69.8 °F 66.2 °F 88% 30.16 in 1.8 mi SSW 11.5 mph 16.1 mph 0.12 in Rain Rain
1:40 PM 68.0 °F 66.2 °F 94% 30.16 in 0.8 mi WSW 17.3 mph 20.7 mph 0.24 in Rain Heavy Rain
1:51 PM 68.0 °F 66.2 °F 94% 30.17 in 0.5 mi WSW 10.4 mph 23.0 mph 0.56 in Fog , Rain , Thunderstorm Heavy Thunderstorms and Rain
1:53 PM 68.0 °F 66.0 °F 93% 30.14 in 0.5 mi WSW 10.4 mph 23.0 mph 0.66 in Fog , Rain , Thunderstorm Heavy Thunderstorms and Rain
2:04 PM 69.8 °F 66.2 °F 88% 30.15 in 2.0 mi West 6.9 mph - 0.06 in Rain , Thunderstorm Thunderstorms and Rain
2:09 PM 69.8 °F 66.2 °F 88% 30.15 in 4.0 mi WSW 6.9 mph - 0.07 in Rain , Thunderstorm Rain
2:24 PM 69.8 °F 68.0 °F 94% 30.15 in 10.0 mi SSW 3.5 mph - 0.07 in Rain Light Rain
2:53 PM 73.0 °F 69.1 °F 87% 30.12 in 10.0 mi East 6.9 mph - 0.07 in Rain Light Rain
3:06 PM 73.4 °F 69.8 °F 88% 30.17 in 10.0 mi East 9.2 mph - 0.00 in Rain , Thunderstorm Light Rain
3:20 PM 73.4 °F 69.8 °F 88% 30.16 in 1.8 mi ENE 9.2 mph - 0.11 in Rain , Thunderstorm Heavy Rain
3:27 PM 71.6 °F 69.8 °F 94% 30.16 in 2.0 mi NE 6.9 mph - 0.14 in Rain Light Rain
3:35 PM 73.4 °F 69.8 °F 88% 30.17 in 10.0 mi ENE 8.1 mph - 0.14 in   Overcast
3:53 PM 73.0 °F 70.0 °F 90% 30.12 in 10.0 mi NE 4.6 mph - 0.14 in Rain Light Rain
4:53 PM 77.0 °F 72.0 °F 84% 30.10 in 10.0 mi ENE 9.2 mph - 0.00 in   Clear
5:53 PM 75.9 °F 71.1 °F 85% 30.11 in 10.0 mi NE 6.9 mph - 0.00 in Rain Light Rain
6:14 PM 75.2 °F 71.6 °F 89% 30.15 in 10.0 mi ENE 5.8 mph - 0.01 in Rain , Thunderstorm Light Rain
6:33 PM 75.2 °F 71.6 °F 89% 30.17 in 4.0 mi SE 6.9 mph - 0.04 in Rain , Thunderstorm Rain
6:40 PM 73.4 °F 71.6 °F 94% 30.17 in 3.0 mi SSE 3.5 mph - 0.10 in Rain Heavy Rain
6:53 PM 73.0 °F 70.0 °F 90% 30.12 in 7.0 mi East 3.5 mph - 0.14 in Rain Light Rain
7:05 PM 73.4 °F 69.8 °F 88% 30.16 in 10.0 mi ENE 4.6 mph - 0.00 in Rain , Thunderstorm Light Rain
7:28 PM 73.4 °F 69.8 °F 88% 30.16 in 10.0 mi NNE 5.8 mph - 0.00 in Rain Light Rain
7:53 PM 73.0 °F 70.0 °F 90% 30.12 in 10.0 mi North 8.1 mph - 0.00 in   Partly Cloudy
8:53 PM 73.0 °F 70.0 °F 90% 30.13 in 10.0 mi North 6.9 mph - N/A   Mostly Cloudy
9:53 PM 73.0 °F 71.1 °F 93% 30.14 in 10.0 mi NNE 8.1 mph - N/A   Scattered Clouds
10:53 PM 73.0 °F 71.1 °F 93% 30.16 in 8.0 mi NNE 6.9 mph - N/A   Mostly Cloudy
11:34 PM 71.6 °F 68.0 °F 88% 30.22 in 10.0 mi East 13.8 mph - 0.00 in   Mostly Cloudy
11:53 PM 71.1 °F 66.9 °F 87% 30.19 in 10.0 mi East 10.4 mph - 0.00 in   Partly Cloudy